User: anonymous   Login
Location: Keppel Henge
(44.7900°N, 80.9447°W)
Time: 05:10:00
(UTC-05:00)
Language:

Tiangong 2 - Orbit

View from above orbital plane
View from above orbital plane
View from above satellite
View from above satellite

Ground track
Ground track

The orbit data is extracted from the following two-line orbital elements,

1 41765U 16057A   18020.80803297  .00003596  00000-0  47554-4 0  9992
2 41765  42.7825 141.2003 0004428 302.7739 193.5450 15.60156123 76957
Epoch (UTC): 20 January 2018 19:23:34
Eccentricity: 0.0004428
inclination: 42.7825°
perigee height: 384 km
apogee height: 390 km
right ascension of ascending node: 141.2003°
argument of perigee: 302.7739°
revolutions per day: 15.60156123
mean anomaly at epoch: 193.5450°
orbit number at epoch: 7695

The dashed part of the orbit path shows where the satellite is in the earth's shadow,  

DLR